Manhattan, KS

12:56 PM CDT on September 24, 2017 (GMT -0500)
Manhattan Regional

Weather History for KMHK - October, 2010

Change the Weather History Date:

Friday, October 22, 2010

  Actual Average Record
Temperature  
Mean Temperature 62 °F 53 °F  
Max Temperature 73 °F 66 °F 84 °F (2003)
Min Temperature 52 °F 40 °F 26 °F (2006)
Degree Days  
Heating Degree Days 2 12  
Month to date heating degree days 200  
Since 1 July heating degree days 270  
Cooling Degree Days 0 0  
Month to date cooling degree days 21  
Year to date cooling degree days 1358  
Growing Degree Days 12 (Base 50)    
Moisture  
Dew Point 55 °F    
Average Humidity 77    
Maximum Humidity 100    
Minimum Humidity 48    
Precipitation  
Precipitation 0.80 in 0.06 in 1.06 in (1996)
Month to date precipitation 1.67  
Year to date precipitation 29.38  
Sea Level Pressure  
Sea Level Pressure 29.86 in    
Wind  
Wind Speed 6 mph (South)    
Max Wind Speed 16 mph    
Max Gust Speed 24 mph    
Visibility 8 miles    
Events Rain , Thunderstorm    
T = Trace of Precipitation, MM = Missing Value Source: NWS Daily Summary

Daily Weather History Graph

Daily Weather History Graph

Search for Another Location

Airport or City:

Trip Planner

Search our weather history database for the weather conditions in past years. The results will help you decide how hot, cold, wet, or windy it might be!

Date:

Astronomy

Oct. 22, 2010 Rise Set
Actual Time 7:43 AM CDT 6:38 PM CDT
Civil Twilight 7:16 AM CDT 7:05 PM CDT
Nautical Twilight 6:45 AM CDT 7:36 PM CDT
Astronomical Twilight 6:14 AM CDT 8:07 PM CDT
Moon 6:08 PM CDT (10/22) 7:23 AM CDT (10/22)
Length of Visible Light 11h 49m
Length of Day
10h 54m
Full, 100% of the Moon is Illuminated
Oct 22
Full
Oct 22
Full
Oct 30
Last Quarter
Nov 5
New
Nov 13
First Quarter

Hourly Weather History & Observations

Time (CDT) Temp. Dew Point Humidity Pressure Visibility Wind Dir Wind Speed Gust Speed Precip Events Conditions
12:52 AM 57.9 °F 39.0 °F 49% 29.94 in 10.0 mi East 4.6 mph - N/A   Clear
1:52 AM 55.9 °F 39.9 °F 55% 29.93 in 10.0 mi ENE 3.5 mph - N/A   Clear
2:52 AM 52.0 °F 41.0 °F 66% 29.94 in 10.0 mi Calm Calm - N/A   Clear
3:52 AM 53.1 °F 42.1 °F 66% 29.94 in 10.0 mi Calm Calm - N/A   Clear
4:52 AM 54.0 °F 44.1 °F 69% 29.92 in 10.0 mi Calm Calm - N/A   Mostly Cloudy
5:52 AM 52.0 °F 44.1 °F 74% 29.92 in 10.0 mi Calm Calm - N/A   Clear
6:52 AM 54.0 °F 45.0 °F 72% 29.90 in 10.0 mi North 3.5 mph - N/A   Clear
7:52 AM 55.9 °F 48.0 °F 75% 29.87 in 10.0 mi NNE 6.9 mph - N/A   Partly Cloudy
8:52 AM 60.1 °F 51.1 °F 72% 29.89 in 10.0 mi Calm Calm - N/A   Overcast
9:52 AM 66.0 °F 52.0 °F 60% 29.91 in 10.0 mi South 10.4 mph - N/A   Scattered Clouds
10:52 AM 70.0 °F 53.1 °F 55% 29.91 in 10.0 mi SSW 13.8 mph - N/A   Clear
11:52 AM 70.0 °F 53.1 °F 55% 29.90 in 10.0 mi SSW 13.8 mph 23.0 mph N/A   Clear
12:52 PM 72.0 °F 53.1 °F 51% 29.91 in 10.0 mi SSW 16.1 mph 21.9 mph N/A   Clear
1:52 PM 73.0 °F 52.0 °F 48% 29.90 in 10.0 mi South 15.0 mph 20.7 mph N/A   Partly Cloudy
2:52 PM 73.0 °F 53.1 °F 49% 29.86 in 10.0 mi South 13.8 mph 24.2 mph N/A   Clear
3:52 PM 72.0 °F 54.0 °F 53% 29.84 in 10.0 mi South 16.1 mph 21.9 mph N/A   Partly Cloudy
4:52 PM 70.0 °F 54.0 °F 57% 29.83 in 10.0 mi South 11.5 mph - N/A   Mostly Cloudy
5:52 PM 71.1 °F 54.0 °F 55% 29.84 in 10.0 mi South 12.7 mph - N/A   Mostly Cloudy
6:52 PM 68.0 °F 54.0 °F 61% 29.84 in 10.0 mi South 6.9 mph - N/A   Overcast
7:52 PM 66.9 °F 55.0 °F 66% 29.84 in 10.0 mi Calm Calm - N/A   Overcast
8:52 PM 64.0 °F 57.9 °F 80% 29.83 in 5.0 mi SE 6.9 mph - 0.03 in Rain Light Rain
8:58 PM 64.4 °F 59.0 °F 83% 29.84 in 7.0 mi South 6.9 mph - 0.01 in Rain , Thunderstorm Light Thunderstorms and Rain
9:06 PM 62.6 °F 60.8 °F 94% 29.84 in 4.0 mi SSE 8.1 mph - 0.05 in Rain , Thunderstorm Thunderstorms and Rain
9:12 PM 62.6 °F 60.8 °F 94% 29.85 in 1.8 mi South 6.9 mph - 0.16 in Rain , Thunderstorm Heavy Thunderstorms and Rain
9:20 PM 62.6 °F 60.8 °F 94% 29.83 in 3.0 mi SE 6.9 mph - 0.19 in Rain Rain
9:31 PM 62.6 °F 60.8 °F 94% 29.83 in 9.0 mi Calm Calm - 0.20 in Rain , Thunderstorm Light Rain
9:42 PM 62.6 °F 60.8 °F 94% 29.84 in 4.0 mi SE 5.8 mph - 0.24 in Rain Rain
9:45 PM 62.6 °F 60.8 °F 94% 29.83 in 2.0 mi ESE 3.5 mph - 0.33 in Rain , Thunderstorm Heavy Rain
9:49 PM 62.6 °F 60.8 °F 94% 29.83 in 1.2 mi Calm Calm - 0.42 in Rain , Thunderstorm Heavy Rain
9:52 PM 62.1 °F 61.0 °F 96% 29.82 in 1.2 mi Calm Calm - 0.44 in Rain , Thunderstorm Heavy Rain
9:56 PM 62.6 °F 60.8 °F 94% 29.83 in 2.0 mi West 5.8 mph - 0.00 in Rain , Thunderstorm Light Thunderstorms and Rain
10:07 PM 62.6 °F 62.6 °F 100% 29.83 in 1.2 mi South 4.6 mph - 0.23 in Rain , Thunderstorm Heavy Thunderstorms and Rain
10:12 PM 64.4 °F 62.6 °F 94% 29.82 in 4.0 mi Variable 6.9 mph - 0.24 in Rain , Thunderstorm Light Thunderstorms and Rain
10:24 PM 64.4 °F 60.8 °F 88% 29.83 in 10.0 mi SSW 8.1 mph - 0.24 in Rain Light Rain
10:31 PM 64.4 °F 62.6 °F 94% 29.83 in 10.0 mi SSE 5.8 mph - 0.24 in Rain , Thunderstorm Light Rain
10:52 PM 64.0 °F 62.1 °F 93% 29.81 in 4.0 mi East 3.5 mph - 0.27 in Rain , Thunderstorm Heavy Rain
11:08 PM 64.4 °F 62.6 °F 94% 29.81 in 6.0 mi SSE 5.8 mph - 0.02 in Rain Light Rain
11:19 PM 64.4 °F 62.6 °F 94% 29.81 in 10.0 mi South 5.8 mph - 0.02 in Thunderstorm Overcast
11:37 PM 64.4 °F 62.6 °F 94% 29.80 in 5.0 mi SSW 4.6 mph - 0.06 in Rain Light Rain
11:52 PM 64.0 °F 62.1 °F 93% 29.78 in 8.0 mi South 4.6 mph - 0.06 in   Overcast